Eielson AFB, AK

12:26 AM AKST on February 24, 2017 (GMT -0900)
Eielson Air Force Base

Weather History for PAEI - September, 2013

Change the Weather History Date:

Monday, September 30, 2013

  Actual Average Record
Temperature  
Mean Temperature 36 °F -  
Max Temperature 38 °F 47 °F 69 °F (2003)
Min Temperature 32 °F 29 °F 7 °F (1992)
Degree Days  
Heating Degree Days 30    
Moisture  
Dew Point 32 °F    
Average Humidity 93    
Maximum Humidity 100    
Minimum Humidity 81    
Precipitation  
Precipitation 0.00 in - - ()
Sea Level Pressure  
Sea Level Pressure 29.74 in    
Wind  
Wind Speed 1 mph (SE)    
Max Wind Speed 4 mph    
Max Gust Speed -    
Visibility 10 miles    
Events      
Averages and records for this station are not official NWS values.
T = Trace of Precipitation, MM = Missing Value Source: NWS Daily Summary

Daily Weather History Graph

Daily Weather History Graph

Search for Another Location

Airport or City:

Trip Planner

Search our weather history database for the weather conditions in past years. The results will help you decide how hot, cold, wet, or windy it might be!

Date:

Astronomy

Sep. 30, 2013 Rise Set
Actual Time 7:56 AM AKDT 7:18 PM AKDT
Civil Twilight 7:07 AM AKDT 8:06 PM AKDT
Nautical Twilight 6:10 AM AKDT 9:04 PM AKDT
Astronomical Twilight 5:07 AM AKDT 10:06 PM AKDT
Moon 2:23 AM AKDT (9/30) 5:59 PM AKDT (9/30)
Length of Visible Light 12h 59m
Length of Day
11h 22m
Waning Crescent, 18% of the Moon is Illuminated
Sep 30
Waning Crescent
Oct 4
New
Oct 11
First Quarter
Oct 18
Full
Oct 26
Last Quarter

Hourly Weather History & Observations

Time (AKDT) Temp. Windchill Dew Point Humidity Pressure Visibility Wind Dir Wind Speed Gust Speed Precip Events Conditions
12:13 AM 33.8 °F - 32.0 °F 93% 29.61 in 10.0 mi Calm Calm - N/A   Overcast
12:58 AM 34.0 °F - 32.7 °F 95% 29.65 in 10.0 mi Variable 1.2 mph - N/A   Overcast
1:13 AM 33.8 °F - 32.0 °F 93% 29.62 in 10.0 mi Calm Calm - N/A   Overcast
1:28 AM 33.8 °F - 32.0 °F 93% 29.63 in 10.0 mi Variable 2.3 mph - N/A   Overcast
1:58 AM 33.8 °F - 32.4 °F 94% 29.66 in 10.0 mi Calm Calm - N/A   Overcast
2:13 AM 33.8 °F - 32.0 °F 93% 29.63 in 10.0 mi Calm Calm - N/A   Overcast
2:58 AM 33.8 °F - 32.4 °F 94% 29.66 in 10.0 mi Calm Calm - N/A   Overcast
3:58 AM 33.6 °F - 32.4 °F 95% 29.67 in 10.0 mi Variable 2.3 mph - N/A   Overcast
4:13 AM 32.0 °F - 32.0 °F 100% 29.64 in 10.0 mi Variable 2.3 mph - N/A   Overcast
4:58 AM 33.6 °F - 32.4 °F 95% 29.68 in 10.0 mi East 1.2 mph - N/A   Overcast
5:58 AM 33.3 °F - 31.8 °F 94% 29.68 in 10.0 mi Calm Calm - N/A   Overcast
6:13 AM 32.0 °F - 32.0 °F 100% 29.66 in 10.0 mi SSE 2.3 mph - N/A   Overcast
6:28 AM 32.0 °F 28.7 °F 32.0 °F 100% 29.66 in 8.0 mi SSE 3.5 mph - N/A   Overcast
6:43 AM 32.0 °F - 32.0 °F 100% 29.67 in 10.0 mi South 2.3 mph - N/A   Overcast
6:58 AM 32.9 °F - 31.6 °F 95% 29.70 in 10.0 mi Calm Calm - N/A   Overcast
7:13 AM 32.0 °F - 32.0 °F 100% 29.67 in 10.0 mi Calm Calm - N/A   Overcast
7:58 AM 32.7 °F 29.6 °F 31.3 °F 94% 29.71 in 10.0 mi Variable 3.5 mph - 0.00 in   Overcast
8:13 AM 32.0 °F - 32.0 °F 100% 29.68 in 10.0 mi SSE 2.3 mph - N/A   Overcast
8:28 AM 32.0 °F - 32.0 °F 100% 29.69 in 10.0 mi SE 2.3 mph - N/A   Overcast
8:58 AM 32.9 °F 29.8 °F 31.5 °F 94% 29.73 in 10.0 mi Variable 3.5 mph - 0.00 in   Overcast
9:13 AM 32.0 °F 28.7 °F 32.0 °F 100% 29.70 in 10.0 mi Variable 3.5 mph - N/A   Overcast
9:58 AM 33.1 °F 30.0 °F 31.8 °F 95% 29.74 in 10.0 mi Variable 3.5 mph - N/A   Overcast
10:03 AM 32.0 °F 28.7 °F 32.0 °F 100% 29.71 in 10.0 mi Variable 3.5 mph - N/A   Overcast
10:48 AM 33.8 °F - 32.0 °F 93% 29.71 in 10.0 mi Calm Calm - N/A   Overcast
10:58 AM 34.0 °F - 31.8 °F 92% 29.75 in 10.0 mi Calm Calm - N/A   Overcast
11:58 AM 34.9 °F - 32.7 °F 92% 29.76 in 10.0 mi Calm Calm - N/A   Overcast
12:58 PM 35.8 °F - 32.9 °F 89% 29.77 in 10.0 mi Calm Calm - N/A   Overcast
1:13 PM 35.6 °F - 32.0 °F 87% 29.74 in 10.0 mi Calm Calm - N/A   Overcast
1:58 PM 36.7 °F - 32.9 °F 86% 29.78 in 10.0 mi Calm Calm - N/A   Overcast
2:28 PM 37.4 °F - 33.8 °F 87% 29.75 in 10.0 mi Variable 2.3 mph - N/A   Overcast
2:58 PM 37.6 °F - 33.6 °F 86% 29.78 in 10.0 mi Calm Calm - N/A   Overcast
3:58 PM 37.9 °F - 34.0 °F 86% 29.78 in 10.0 mi Calm Calm - N/A   Overcast
4:58 PM 38.5 °F - 34.2 °F 84% 29.79 in 10.0 mi Calm Calm - N/A   Overcast
5:13 PM 39.2 °F 37.0 °F 33.8 °F 81% 29.76 in 10.0 mi Variable 3.5 mph - N/A   Overcast
5:28 PM 39.2 °F - 33.8 °F 81% 29.76 in 10.0 mi Variable 2.3 mph - N/A   Overcast
5:58 PM 38.1 °F 35.7 °F 33.8 °F 84% 29.80 in 10.0 mi Variable 3.5 mph - N/A   Overcast
6:58 PM 36.9 °F 34.3 °F 33.1 °F 86% 29.81 in 10.0 mi Variable 3.5 mph - N/A   Overcast
7:58 PM 35.8 °F - 32.0 °F 86% 29.82 in 10.0 mi South 2.3 mph - N/A   Overcast
8:58 PM 34.9 °F 32.0 °F 31.3 °F 87% 29.83 in 10.0 mi Variable 3.5 mph - N/A   Overcast
9:13 PM 33.8 °F - 32.0 °F 93% 29.80 in 10.0 mi Variable 1.2 mph - N/A   Overcast
9:28 PM 33.8 °F 30.8 °F 32.0 °F 93% 29.81 in 10.0 mi Variable 3.5 mph - N/A   Overcast
9:43 PM 33.8 °F - 32.0 °F 93% 29.81 in 10.0 mi NNE 1.2 mph - N/A   Overcast
9:58 PM 33.8 °F - 31.5 °F 91% 29.84 in 10.0 mi Variable 1.2 mph - N/A   Overcast
10:13 PM 32.0 °F - 32.0 °F 100% 29.82 in 10.0 mi Calm Calm - N/A   Overcast
10:43 PM 32.0 °F 28.7 °F 32.0 °F 100% 29.82 in 10.0 mi South 3.5 mph - N/A   Overcast
10:58 PM 32.9 °F - 31.3 °F 94% 29.85 in 10.0 mi East 1.2 mph - N/A   Overcast
11:28 PM 32.0 °F 28.7 °F 32.0 °F 100% 29.83 in 10.0 mi Variable 3.5 mph - N/A   Overcast
11:58 PM 32.5 °F - 31.1 °F 94% 29.86 in 10.0 mi Calm Calm - N/A   Overcast